TimeCST,TemperatureF,Dew PointF,Humidity,Sea Level PressureIn,VisibilityMPH,Wind Direction,Wind SpeedMPH,Gust SpeedMPH,PrecipitationIn,Events,Conditions,WindDirDegrees,DateUTC
12:15 AM,23.0,3.2,43,30.23,10.0,North,11.5,20.7,N/A,,Clear,350,2012-12-10 06:15:00
12:35 AM,23.0,3.2,43,30.22,10.0,North,19.6,24.2,N/A,,Clear,350,2012-12-10 06:35:00
12:55 AM,23.0,3.2,43,30.23,10.0,NNW,8.1,-,N/A,,Clear,340,2012-12-10 06:55:00
1:15 AM,21.2,3.2,46,30.23,10.0,NNW,13.8,17.3,N/A,,Clear,340,2012-12-10 07:15:00
1:35 AM,21.2,3.2,46,30.23,10.0,North,12.7,-,N/A,,Clear,350,2012-12-10 07:35:00
1:55 AM,19.4,1.4,46,30.21,10.0,NNW,5.8,-,N/A,,Clear,340,2012-12-10 07:55:00
2:15 AM,19.4,3.2,49,30.20,10.0,NNW,6.9,-,N/A,,Clear,330,2012-12-10 08:15:00
2:35 AM,17.6,1.4,49,30.19,10.0,NNW,6.9,-,N/A,,Clear,340,2012-12-10 08:35:00
2:55 AM,17.6,1.4,49,30.19,10.0,NNW,8.1,-,N/A,,Clear,330,2012-12-10 08:55:00
3:15 AM,17.6,1.4,49,30.19,10.0,NNW,9.2,-,N/A,,Clear,330,2012-12-10 09:15:00
3:35 AM,17.6,1.4,49,30.18,10.0,NNW,8.1,-,N/A,,Clear,330,2012-12-10 09:35:00
3:55 AM,17.6,1.4,49,30.18,10.0,NNW,9.2,-,N/A,,Clear,330,2012-12-10 09:55:00
4:15 AM,15.8,1.4,53,30.17,10.0,NNW,6.9,-,N/A,,Clear,330,2012-12-10 10:15:00
4:35 AM,15.8,1.4,53,30.18,10.0,NW,6.9,-,N/A,,Clear,310,2012-12-10 10:35:00
4:55 AM,12.2,1.4,62,30.17,10.0,WNW,4.6,-,N/A,,Clear,290,2012-12-10 10:55:00
5:15 AM,10.4,-0.4,62,30.17,10.0,West,6.9,-,N/A,,Clear,260,2012-12-10 11:15:00
5:35 AM,10.4,-0.4,62,30.16,10.0,West,9.2,-,N/A,,Clear,280,2012-12-10 11:35:00
5:55 AM,10.4,-0.4,62,30.16,10.0,West,8.1,-,N/A,,Clear,280,2012-12-10 11:55:00
6:15 AM,8.6,-0.4,67,30.16,10.0,WSW,5.8,-,N/A,,Clear,240,2012-12-10 12:15:00
6:35 AM,8.6,-0.4,67,30.17,10.0,WSW,6.9,-,N/A,,Clear,250,2012-12-10 12:35:00
6:55 AM,8.6,-0.4,67,30.17,10.0,WSW,5.8,-,N/A,,Clear,250,2012-12-10 12:55:00
7:15 AM,6.8,-0.4,72,30.16,10.0,WSW,8.1,-,N/A,,Clear,250,2012-12-10 13:15:00
7:35 AM,6.8,-0.4,72,30.17,10.0,WSW,8.1,-,N/A,,Clear,250,2012-12-10 13:35:00
7:55 AM,8.6,1.4,73,30.17,10.0,WSW,6.9,-,N/A,,Clear,250,2012-12-10 13:55:00
8:15 AM,10.4,1.4,67,30.17,10.0,Calm,Calm,-,N/A,,Clear,0,2012-12-10 14:15:00
8:35 AM,12.2,3.2,67,30.17,10.0,SW,4.6,-,N/A,,Clear,230,2012-12-10 14:35:00
8:55 AM,15.8,3.2,58,30.17,10.0,WSW,5.8,-,N/A,,Clear,240,2012-12-10 14:55:00
9:15 AM,17.6,3.2,53,30.16,10.0,WSW,5.8,-,N/A,,Clear,240,2012-12-10 15:15:00
9:35 AM,21.2,5.0,50,30.16,10.0,WSW,5.8,-,N/A,,Clear,250,2012-12-10 15:35:00
9:55 AM,24.8,5.0,43,30.16,10.0,West,6.9,-,N/A,,Clear,270,2012-12-10 15:55:00
10:15 AM,26.6,5.0,40,30.15,10.0,WSW,6.9,-,N/A,,Clear,240,2012-12-10 16:15:00
10:35 AM,28.4,6.8,40,30.14,10.0,West,10.4,-,N/A,,Clear,260,2012-12-10 16:35:00
10:55 AM,30.2,6.8,37,30.13,10.0,West,10.4,-,N/A,,Clear,260,2012-12-10 16:55:00
11:15 AM,32.0,6.8,35,30.11,10.0,WSW,9.2,-,N/A,,Clear,250,2012-12-10 17:15:00
11:35 AM,33.8,5.0,30,30.10,10.0,WSW,8.1,-,N/A,,Clear,240,2012-12-10 17:35:00
11:55 AM,33.8,5.0,30,30.09,10.0,WSW,6.9,-,N/A,,Clear,240,2012-12-10 17:55:00
12:15 PM,35.6,5.0,28,30.07,10.0,SW,8.1,-,N/A,,Clear,230,2012-12-10 18:15:00
12:35 PM,37.4,5.0,26,30.05,10.0,West,10.4,-,N/A,,Clear,260,2012-12-10 18:35:00
12:55 PM,37.4,-0.4,20,30.03,10.0,WSW,9.2,-,N/A,,Clear,240,2012-12-10 18:55:00
1:15 PM,39.2,-2.2,17,30.01,10.0,SW,8.1,-,N/A,,Clear,230,2012-12-10 19:15:00
1:35 PM,39.2,-2.2,17,29.99,10.0,SSW,11.5,-,N/A,,Clear,210,2012-12-10 19:35:00
1:55 PM,41.0,-0.4,18,29.99,10.0,WSW,6.9,-,N/A,,Clear,250,2012-12-10 19:55:00
2:15 PM,41.0,-0.4,18,29.98,10.0,WSW,11.5,-,N/A,,Clear,240,2012-12-10 20:15:00
2:35 PM,41.0,-0.4,18,29.98,10.0,WSW,13.8,18.4,N/A,,Clear,250,2012-12-10 20:35:00
2:55 PM,41.0,1.4,19,29.97,10.0,West,8.1,-,N/A,,Clear,260,2012-12-10 20:55:00
3:15 PM,41.0,5.0,23,29.97,10.0,West,8.1,-,N/A,,Clear,280,2012-12-10 21:15:00
3:35 PM,41.0,5.0,23,29.96,10.0,WSW,8.1,-,N/A,,Clear,250,2012-12-10 21:35:00
3:55 PM,41.0,5.0,23,29.96,10.0,West,9.2,16.1,N/A,,Clear,260,2012-12-10 21:55:00
4:15 PM,41.0,5.0,23,29.96,10.0,WSW,8.1,-,N/A,,Clear,240,2012-12-10 22:15:00
4:35 PM,41.0,5.0,23,29.95,10.0,SW,9.2,-,N/A,,Unknown,230,2012-12-10 22:35:00
5:15 PM,37.4,5.0,26,29.95,10.0,SW,3.5,-,N/A,,Clear,230,2012-12-10 23:15:00
5:35 PM,35.6,5.0,28,29.95,10.0,SW,4.6,-,N/A,,Unknown,230,2012-12-10 23:35:00
5:55 PM,33.8,5.0,30,29.94,10.0,SSW,4.6,-,N/A,,Clear,210,2012-12-10 23:55:00
6:15 PM,28.4,3.2,34,29.95,10.0,SSW,5.8,-,N/A,,Clear,210,2012-12-11 00:15:00
6:35 PM,28.4,3.2,34,29.95,10.0,SSW,6.9,-,N/A,,Clear,200,2012-12-11 00:35:00
6:55 PM,26.6,8.6,47,29.94,10.0,South,10.4,-,N/A,,Clear,190,2012-12-11 00:55:00
7:15 PM,28.4,8.6,43,29.95,10.0,South,8.1,-,N/A,,Clear,190,2012-12-11 01:15:00
7:35 PM,28.4,8.6,43,29.95,10.0,South,9.2,-,N/A,,Clear,180,2012-12-11 01:35:00
7:55 PM,26.6,8.6,47,29.94,10.0,South,9.2,-,N/A,,Clear,180,2012-12-11 01:55:00
8:15 PM,28.4,10.4,47,29.95,10.0,South,9.2,-,N/A,,Clear,190,2012-12-11 02:15:00
8:55 PM,26.6,8.6,47,29.96,10.0,South,9.2,-,N/A,,Clear,190,2012-12-11 02:55:00
9:15 PM,26.6,10.4,51,29.96,10.0,SSW,9.2,-,N/A,,Clear,200,2012-12-11 03:15:00
9:35 PM,28.4,10.4,47,29.97,10.0,SSW,8.1,-,N/A,,Clear,200,2012-12-11 03:35:00
9:55 PM,26.6,10.4,51,29.97,10.0,SSW,6.9,-,N/A,,Clear,210,2012-12-11 03:55:00
10:15 PM,23.0,8.6,54,29.97,10.0,SW,6.9,-,N/A,,Clear,220,2012-12-11 04:15:00
10:35 PM,23.0,10.4,59,29.98,10.0,WSW,6.9,-,N/A,,Clear,240,2012-12-11 04:35:00
10:55 PM,21.2,10.4,63,29.99,10.0,SW,6.9,-,N/A,,Clear,220,2012-12-11 04:55:00
11:15 PM,24.8,12.2,59,29.98,10.0,SW,9.2,-,N/A,,Clear,220,2012-12-11 05:15:00
11:35 PM,26.6,14.0,59,29.98,10.0,SW,5.8,-,N/A,,Clear,220,2012-12-11 05:35:00
11:55 PM,26.6,14.0,59,29.99,10.0,Calm,Calm,-,N/A,,Clear,0,2012-12-11 05:55:00